Portada
METAR-TAF:

METAR-TAF

Aeropuertos :

Lawrence Municipal Airport

Lawrence, Kansas, Estados Unidos

latitud: 39-00-30N, longitud: 095-12-42W, altitud: 253 m

Observación

El informe se hizo hace 1 hora y 16 minutos, a las 03:52 UTC
Viento 7 kt del sureste
Temperatura 28°C
Humedad 70%
Presión 1012 hPa
Visibilidad: 16.1 km
Cielo despejado

METAR: KLWC 070352Z AUTO 13007KT 10SM CLR 28/22 A2989 RMK AO2 SLP112 T02780222

Hora: 00:08 (05:08 UTC)


TAF: falta

Observaciones y pronósticos meteorológicos de más de 4000 aeropuertos (mensajes METAR y TAF).

Los puntos amarillos y rojos representan las estaciones disponibles.

Ponga el ratón en el punto deseado para ver el nombre de la estación.

Haga clic para ver las observaciones y los pronósticos meteorológicos.

Para cambiar el mapa : haga clic en los botones verdes con una cruz de color negro para hacer un zoom, en el botón verde con un guión para alejar o en las flechas verdes para mapas adyacentes.


METAR-TAF: